User: anonymous   Login
Location: Howard City Library
(37.4684°N, 96.2639°W)
Time: 17:47:01
(UTC+00:00)
Language:

Cosmos 2297 - Orbit

View from above orbital plane
View from above orbital plane
View from above satellite
View from above satellite

Ground track
Ground track

The orbit data is extracted from the following two-line orbital elements,

1 23404U 94077A   20151.62620051 -.00000313 +00000-0 -14073-3 0  9998
2 23404 071.0134 195.3996 0017988 305.5114 054.4329 14.13537158316426
Epoch (UTC): 30 May 2020 15:01:43
Eccentricity: 0.0017988
inclination: 71.0134°
perigee height: 834 km
apogee height: 860 km
right ascension of ascending node: 195.3996°
argument of perigee: 305.5114°
revolutions per day: 14.13537158
mean anomaly at epoch: 54.4329°
orbit number at epoch: 31642

The dashed part of the orbit path shows where the satellite is in the earth's shadow,  

DLR